Weather History for Bentonville, AR

Change the Weather History Date:

Monday, November 7, 2011

  Actual Average Record
Temperature  
Mean Temperature 64 °F -  
Max Temperature 68 °F 59 °F 80 °F (1963)
Min Temperature 60 °F 35 °F 15 °F (1959)
Degree Days  
Heating Degree Days 1    
Growing Degree Days 14 (Base 50)    
Moisture  
Dew Point 58 °F    
Average Humidity 84    
Maximum Humidity 94    
Minimum Humidity 73    
Precipitation  
Precipitation 0.49 in - - ()
Sea Level Pressure  
Sea Level Pressure 30.05 in    
Wind  
Wind Speed 7 mph (SSE)    
Max Wind Speed 14 mph    
Max Gust Speed 21 mph    
Visibility 9 miles    
Events      
Averages and records for this station are not official NWS values.
T = Trace of Precipitation, MM = Missing Value Source: NWS Daily Summary

Daily Weather History Graph

Daily Weather History Graph

Search for Another Location

Airport:

Trip Planner

Search our weather history database for the weather conditions in past years. The results will help you decide how hot, cold, wet, or windy it might be!

Date:

Astronomy

Nov. 07, 2011 Rise Set
Actual Time 6:45 AM CST 5:14 PM CST
Civil Twilight 6:18 AM CST 5:41 PM CST
Nautical Twilight 5:48 AM CST 6:12 PM CST
Astronomical Twilight 5:17 AM CST 6:42 PM CST
Moon 3:23 PM CST (11/7) 3:52 AM CST (11/7)
Length of Visible Light 11h 23m
Length of Day
10h 29m
Waxing Gibbous, 92% of the Moon is Illuminated
Nov 7
Waxing Gibbous
Nov 10
Full
Nov 18
Last Quarter
Nov 25
New
Dec 2
First Quarter

Hourly Weather History & Observations

Time (CST) Temp. Dew Point Humidity Pressure Visibility Wind Dir Wind Speed Gust Speed Precip Events Conditions
12:15 AM 60.8 °F 55.4 °F 82% 30.04 in 10.0 mi SSE 6.9 mph - N/A   Overcast
12:35 AM 60.8 °F 55.4 °F 82% 30.04 in 10.0 mi SSE 9.2 mph - N/A   Overcast
12:55 AM 62.6 °F 57.2 °F 82% 30.04 in 10.0 mi South 9.2 mph - N/A   Overcast
1:35 AM 62.6 °F 57.2 °F 82% 30.04 in 10.0 mi South 9.2 mph 17.3 mph 0.01 in   Overcast
1:55 AM 62.6 °F 57.2 °F 82% 30.05 in 10.0 mi South 5.8 mph - 0.02 in   Overcast
2:15 AM 62.6 °F 57.2 °F 82% 30.05 in 10.0 mi SSW 3.5 mph - 0.01 in   Overcast
2:35 AM 62.6 °F 57.2 °F 82% 30.06 in 10.0 mi Calm Calm - 0.01 in   Overcast
2:55 AM 62.6 °F 57.2 °F 82% 30.06 in 10.0 mi South 3.5 mph - 0.01 in   Overcast
3:15 AM 60.8 °F 57.2 °F 88% 30.07 in 8.0 mi WNW 3.5 mph - 0.02 in   Overcast
3:35 AM 60.8 °F 57.2 °F 88% 30.07 in 10.0 mi Calm Calm - 0.03 in   Overcast
3:55 AM 60.8 °F 57.2 °F 88% 30.07 in 10.0 mi WSW 3.5 mph - 0.03 in   Overcast
4:35 AM 60.8 °F 57.2 °F 88% 30.08 in 9.0 mi Calm Calm - 0.03 in   Overcast
4:55 AM 60.8 °F 57.2 °F 88% 30.08 in 7.0 mi SSE 5.8 mph - 0.05 in   Overcast
5:15 AM 60.8 °F 59.0 °F 94% 30.08 in 9.0 mi SE 6.9 mph - 0.03 in   Overcast
5:35 AM 62.6 °F 59.0 °F 88% 30.07 in 10.0 mi SSE 6.9 mph - 0.03 in   Overcast
5:55 AM 60.8 °F 59.0 °F 94% 30.08 in 10.0 mi Calm Calm - 0.05 in   Overcast
6:15 AM 60.8 °F 59.0 °F 94% 30.09 in 10.0 mi South 3.5 mph - N/A   Overcast
6:35 AM 62.6 °F 59.0 °F 88% 30.09 in 10.0 mi South 5.8 mph - 0.01 in   Overcast
7:15 AM 60.8 °F 57.2 °F 88% 30.09 in 10.0 mi SSE 5.8 mph - 0.02 in   Overcast
7:35 AM 60.8 °F 57.2 °F 88% 30.11 in 9.0 mi Calm Calm - 0.05 in   Overcast
7:55 AM 60.8 °F 57.2 °F 88% 30.12 in 5.0 mi Calm Calm - 0.12 in   Overcast
8:15 AM 60.8 °F 57.2 °F 88% 30.13 in 9.0 mi South 4.6 mph - 0.03 in   Overcast
8:35 AM 60.8 °F 57.2 °F 88% 30.12 in 6.0 mi South 4.6 mph - 0.09 in   Overcast
9:15 AM 60.8 °F 57.2 °F 88% 30.11 in 8.0 mi SE 10.4 mph - 0.04 in   Overcast
9:35 AM 60.8 °F 59.0 °F 94% 30.11 in 8.0 mi SSE 8.1 mph - 0.07 in   Overcast
9:55 AM 60.8 °F 59.0 °F 94% 30.13 in 10.0 mi South 5.8 mph - 0.07 in   Overcast
10:15 AM 62.6 °F 60.8 °F 94% 30.13 in 7.0 mi South 8.1 mph - 0.01 in   Overcast
10:35 AM 62.6 °F 59.0 °F 88% 30.12 in 10.0 mi SE 8.1 mph - 0.01 in   Overcast
10:55 AM 62.6 °F 59.0 °F 88% 30.11 in 10.0 mi SSE 8.1 mph - 0.02 in   Overcast
11:15 AM 62.6 °F 60.8 °F 94% 30.11 in 10.0 mi SSE 8.1 mph - N/A   Overcast
11:35 AM 64.4 °F 60.8 °F 88% 30.09 in 10.0 mi SSE 9.2 mph - N/A   Overcast
11:55 AM 64.4 °F 57.2 °F 77% 30.08 in 10.0 mi SSE 12.7 mph - N/A   Overcast
12:15 PM 62.6 °F 57.2 °F 82% 30.08 in 10.0 mi SSE 11.5 mph - N/A   Overcast
12:35 PM 62.6 °F 57.2 °F 82% 30.07 in 8.0 mi SSE 9.2 mph - 0.02 in   Overcast
12:55 PM 62.6 °F 60.8 °F 94% 30.06 in 9.0 mi SE 12.7 mph 17.3 mph 0.02 in   Overcast
1:15 PM 64.4 °F 60.8 °F 88% 30.04 in 8.0 mi SE 11.5 mph - N/A   Overcast
1:35 PM 64.4 °F 60.8 °F 88% 30.03 in 8.0 mi SSE 13.8 mph 20.7 mph N/A   Overcast
1:55 PM 64.4 °F 60.8 °F 88% 30.02 in 9.0 mi SE 13.8 mph - N/A   Overcast
2:15 PM 66.2 °F 60.8 °F 83% 30.02 in 10.0 mi SSE 12.7 mph - N/A   Overcast
2:35 PM 66.2 °F 60.8 °F 83% 30.01 in 10.0 mi SSE 13.8 mph - N/A   Overcast
2:55 PM 66.2 °F 60.8 °F 83% 30.01 in 10.0 mi SSE 10.4 mph 17.3 mph N/A   Overcast
3:15 PM 68.0 °F 60.8 °F 78% 30.00 in 10.0 mi SSE 10.4 mph 17.3 mph N/A   Mostly Cloudy
3:35 PM 66.2 °F 60.8 °F 83% 30.00 in 10.0 mi SSE 13.8 mph - N/A   Overcast
3:55 PM 66.2 °F 59.0 °F 78% 29.98 in 10.0 mi SSE 11.5 mph 17.3 mph N/A   Scattered Clouds
4:15 PM 66.2 °F 60.8 °F 83% 29.97 in 10.0 mi SSE 12.7 mph - N/A   Partly Cloudy
4:35 PM 66.2 °F 59.0 °F 78% 29.96 in 10.0 mi SSE 12.7 mph 20.7 mph N/A   Clear
4:55 PM 66.2 °F 57.2 °F 73% 29.96 in 10.0 mi SSE 12.7 mph 19.6 mph N/A   Clear
5:15 PM 64.4 °F 57.2 °F 77% 29.96 in 10.0 mi SSE 11.5 mph - N/A   Clear
5:55 PM 64.4 °F 57.2 °F 77% 29.97 in 10.0 mi SSE 6.9 mph - N/A   Partly Cloudy
6:15 PM 64.4 °F 57.2 °F 77% 29.98 in 10.0 mi SSE 8.1 mph - N/A   Clear
6:55 PM 64.4 °F 57.2 °F 77% 29.98 in 10.0 mi SSE 8.1 mph - N/A   Mostly Cloudy
7:15 PM 64.4 °F 57.2 °F 77% 29.97 in 10.0 mi SSE 9.2 mph - N/A   Mostly Cloudy
7:35 PM 64.4 °F 57.2 °F 77% 29.97 in 10.0 mi SSE 8.1 mph - N/A   Mostly Cloudy
7:55 PM 64.4 °F 57.2 °F 77% 29.97 in 10.0 mi SSE 10.4 mph - N/A   Overcast
8:15 PM 64.4 °F 57.2 °F 77% 29.97 in 10.0 mi SSE 9.2 mph - N/A   Overcast
8:35 PM 64.4 °F 57.2 °F 77% 29.97 in 10.0 mi SSE 9.2 mph - N/A   Overcast
8:55 PM 64.4 °F 57.2 °F 77% 29.96 in 10.0 mi SSE 9.2 mph - N/A   Overcast
9:15 PM 64.4 °F 57.2 °F 77% 29.96 in 10.0 mi SSE 9.2 mph - N/A   Overcast
9:55 PM 64.4 °F 57.2 °F 77% 29.95 in 10.0 mi SSE 10.4 mph - N/A   Overcast
10:15 PM 66.2 °F 57.2 °F 73% 29.94 in 10.0 mi SSE 11.5 mph 16.1 mph N/A   Overcast
10:35 PM 66.2 °F 57.2 °F 73% 29.93 in 10.0 mi SSE 10.4 mph - N/A   Overcast
10:55 PM 66.2 °F 59.0 °F 78% 29.92 in 10.0 mi South 12.7 mph 20.7 mph N/A   Overcast
11:15 PM 66.2 °F 59.0 °F 78% 29.91 in 10.0 mi SSE 15.0 mph 25.3 mph N/A   Mostly Cloudy
11:35 PM 66.2 °F 59.0 °F 78% 29.91 in 10.0 mi South 13.8 mph 25.3 mph N/A   Mostly Cloudy
11:55 PM 66.2 °F 59.0 °F 78% 29.90 in 10.0 mi South 13.8 mph 24.2 mph N/A   Mostly Cloudy